SL-3 R/B

Satellite information

Favourite Embed

Satellite Type and Status

ROCKET BODYIN ORBIT

Key statistics

Satellite SL-3 R/B at a glance.

Uptime

16936

Days in orbit

Revolutions

≈ 14.1

Per day

Orbit

LEO

Low Earth Orbit

Inclination

81.2

Latest

Satellite identification and parameters

Extended collection of information and parameters for SL-3 R/B.

Object identification

Identified? True

Debris? False

Object name: SL-3 R/B

International designator: 1978-121B

Object number (NORAD): 11166

Object ID (CCSDS): 11166

Country: COMMONWEALTH OF INDEPENDENT STATES (CIS)

Current information (Y/N): Y

RCS size: LARGE

Orbital parameters

Period: 101.825 minutes

Inclination: 81.2399 deg

SMA: 7223.225 km

Apoapsis: 892.447 km

Periapsis: 797.733 km

RAAN: 240.3107 deg

Eccentricy: 0.0065562

Argument of periapsis: 344.3891 deg

Mean anomaly: 15.5259 deg

Mean motion: 14.14184487 rev/day

Mean motion (dot): 0.00000033 rev/day2

B* drag term: 0.000010594 1/REarth

Two-line elements (TLE)

Creation date: May 6, 2025, 3:54 a.m.

Reference frame: TEME

Reference center: EARTH

Epoch: May 5, 2025, 7:16 p.m. UTC

TLE line 0: 0 SL-3 R/B

TLE line 1: 1 11166U 78121B 25125.80318461 .00000033 00000-0 10594-4 0 9999

TLE line 2: 2 11166 81.2399 240.3107 0065562 344.3891 15.5259 14.14184487390632

Live tracking on map

Real-time ground track for satellite SL-3 R/B.

In-orbit conjunctions

A list of the most updated potential collisions computed for object SL-3 R/B.

Target Orbit TCA Probability of collision Miss distance Type
CZ-6A DEB SSO 2025-03-30 04:06:58 0.0001501443 408.0 (m) DEBRIS
NOAA 16 DEB SSO 2025-03-27 06:30:51 0.0001074645 992.0 (m) DEBRIS
FENGYUN 1C DEB SSO 2024-11-14 00:09:37 0.001057851 980.0 (m) DEBRIS
CZ-6A DEB SSO 2024-10-10 14:50:14 0.0002429825 314.0 (m) DEBRIS
CZ-6A DEB SSO 2024-10-09 10:49:39 0.0003309959 326.0 (m) DEBRIS

Associated space launch

Astrophysics (not confirmed) satellite

SL-3 R/B was lifted into orbit during the mission ‘Vostok 8A92M | Astrofizika’, on board a Vostok 8A92M space rocket.

The launch took place on Dec. 23, 1978, 8:39 a.m. from 43/3 (43L).

For more information about the launch, click the button.

Launch to space Vostok 8A92M | Astrofizika
Vostok 8A92M | Astrofizika

Agency: N/A

Status: Launch Successful

Launch date: Dec. 23, 1978, 8:39 a.m. UTC

Rocket: Vostok 8A92M

Launch pad: 43/3 (43L)

Location: Plesetsk Cosmodrome, Russian Federation

...

Latest news about this satellite

There are no fresh news available about this satellite. Check back as we update our databases every day.


Newsletter sign-up

Weekly statistics, charts and insights to help you stay on top of the space industry.